Probability
0 0 0 0 0 0 0 0 0 0 0 0 1 2 2 2 2 1 0 0 0 0 0 0 0 1 2 3 3 4 2 1 0 1 0 0 0 0 2 4 3 1 0
0 0 0 0 0 0 0 0 0 0 0 0 0 1 1 1 1 0 0 0 0 0 0 0 0 0 1 1 2 2 2 0 0 1 1 1 1 1 2 4 3 1 1
0 0 0 0 0 0 0 0 0 0 0 0 0 0 0 0 0 0 0 0 0 0 0 0 0 0 0 0 0 1 1 1 0 1 2 3 2 2 3 3 2 1 1
0 0 0 0 0 0 0 0 0 0 0 0 0 0 0 0 0 0 0 0 0 0 0 0 0 0 0 0 0 0 1 1 1 1 2 3 3 3 3 3 2 1 1
0 0 0 0 0 0 0 0 0 0 0 0 0 0 0 0 0 0 0 0 0 0 0 0 0 0 0 0 0 0 0 1 2 2 2 2 2 2 2 2 2 1 0
0 0 0 0 0 0 0 0 0 0 0 0 0 0 0 0 0 0 0 0 0 0 0 0 0 0 0 0 0 0 0 0 1 2 2 2 2 1 1 1 1 0 0
0 0 0 0 0 0 0 0 0 0 0 0 0 0 0 0 0 0 0 0 0 0 0 0 0 0 0 0 0 0 0 0 0 1 1 1 1 1 0 0 0 0 0
0 0 0 0 0 0 0 0 0 0 0 0 0 0 0 0 0 0 0 0 0 0 0 0 0 0 0 0 0 0 0 0 0 0 0 1 1 1 0 0 0 0 0
0 0 0 0 0 0 0 0 0 0 0 0 0 0 0 0 0 0 0 0 0 0 0 0 0 0 0 0 0 0 0 0 0 0 0 1 1 1 0 0 0 0 0
0 0 0 0 0 0 0 0 0 0 0 0 0 0 0 0 0 0 0 0 0 0 0 0 0 0 0 0 0 0 0 0 0 0 0 1 1 0 0 0 0 0 0
0 0 0 0 0 0 0 0 0 0 0 0 0 0 0 0 0 0 0 0 0 0 0 0 0 0 0 0 0 0 0 0 0 0 0 1 0 0 0 0 0 0 0
0 0 0 0 0 0 0 0 0 0 0 0 0 0 0 0 0 0 0 0 0 0 0 0 0 0 0 0 0 0 0 0 0 0 0 0 0 0 0 0 0 0 0
0 0 0 0 0 0 0 0 0 0 0 0 0 0 0 0 0 0 0 0 0 0 0 0 0 0 0 0 0 0 0 0 0 0 0 0 0 0 0 0 0 0 0
0 0 0 0 0 0 0 0 0 1 1 0 0 0 0 0 0 0 0 0 0 0 0 0 0 0 0 0 0 0 0 0 0 0 0 0 0 0 0 0 0 0 0
0 0 0 0 0 0 0 0 1 2 2 1 1 0 0 0 0 0 0 0 0 0 0 0 0 0 0 0 0 0 0 0 0 0 0 0 0 0 0 0 0 0 0
0 0 0 0 0 0 0 0 1 2 2 2 2 1 0 0 0 0 0 0 0 0 0 0 0 0 0 0 0 0 0 0 0 0 0 0 0 0 0 0 0 0 0
0 0 0 0 0 0 0 0 0 1 1 2 2 2 1 1 1 2 1 0 0 0 0 0 0 0 0 0 0 0 0 0 0 0 0 0 0 0 0 0 0 0 0
1 0 0 0 0 0 0 0 0 0 0 1 1 1 1 2 2 3 2 1 1 0 0 0 0 0 0 0 0 0 0 0 0 0 0 0 0 0 0 0 0 0 0
2 1 1 1 0 0 0 0 0 0 0 0 0 0 1 1 1 2 2 2 1 0 0 0 0 0 0 0 0 0 0 0 0 0 0 0 0 0 0 0 0 0 0
3 3 2 1 0 0 0 0 0 0 0 0 0 0 0 0 0 1 1 1 1 0 0 0 0 0 0 0 0 0 0 0 0 0 0 0 0 0 0 0 0 0 0
4 3 2 1 0 0 0 0 0 0 0 0 0 0 0 0 0 0 0 0 0 0 0 0 0 0 0 0 0 0 0 0 0 0 0 0 0 0 0 0 0 0 0
3 3 2 0 0 0 0 0 0 0 0 0 0 0 0 0 0 0 0 0 0 0 0 0 0 0 0 0 0 0 0 0 0 0 0 0 0 0 0 0 0 0 0
2 3 2 1 0 0 0 0 0 0 0 0 0 0 0 0 0 0 0 0 0 0 0 0 0 0 0 0 0 0 0 0 0 0 0 0 0 0 0 0 0 0 0
4 4 4 2 1 0 0 0 0 0 0 0 0 0 0 0 0 0 0 0 0 0 0 0 0 0 0 0 0 0 0 0 0 0 0 0 0 0 0 0 0 0 0
5 5 4 2 1 0 0 0 0 0 0 0 0 0 0 0 0 0 0 0 0 0 0 0 0 0 0 0 0 0 0 0 0 0 0 0 0 0 0 0 0 0 0
4 4 4 2 0 0 0 0 0 0 0 0 0 0 0 0 0 0 0 0 0 0 0 0 0 0 0 0 0 0 0 0 0 0 0 0 0 0 0 0 0 0 0
Wind_Speed
2 3 2 2 2 2 2 2 3 4 4 5 6 6 5 6 6 5 4 10 12 12 11 11 11 11 11 11 11 10 10 10 9 9 9 8 7 6 6 5 6 6 6
2 3 3 3 3 2 2 3 4 4 4 4 5 5 5 5 5 5 5 6 10 11 11 11 12 12 12 11 11 11 10 10 9 9 8 8 7 7 6 6 6 6 6
3 3 3 3 2 2 3 3 4 3 3 4 5 5 5 5 5 5 5 4 5 9 11 11 11 11 11 11 10 10 10 10 9 9 8 8 7 6 6 6 6 6 6
4 3 3 2 3 3 3 3 3 3 3 4 3 3 4 4 5 5 4 4 4 4 7 10 10 10 10 10 10 9 9 10 9 8 8 8 7 7 6 6 5 6 6
4 3 3 2 3 3 2 3 3 3 3 3 2 3 3 3 3 4 4 4 4 4 3 7 9 10 10 10 10 9 9 9 9 9 8 8 7 7 6 6 6 7 7
3 4 2 3 3 3 2 3 3 3 2 1 3 3 2 2 3 3 3 3 3 4 4 4 3 5 9 9 9 10 10 9 9 9 9 8 8 7 7 7 7 7 7
3 3 2 3 3 2 2 3 2 2 2 2 2 2 2 2 3 2 2 3 3 3 3 3 3 3 3 7 8 8 9 9 9 8 8 8 8 7 7 7 6 6 6
2 3 2 3 2 2 2 3 2 2 1 1 1 1 1 2 3 2 2 2 3 3 3 3 3 3 3 2 4 7 8 8 8 8 8 8 7 7 6 6 6 6 6
2 2 3 3 2 2 2 2 2 2 1 1 1 1 1 1 1 1 1 2 2 2 2 2 3 3 3 3 2 5 7 7 7 7 7 7 7 7 6 6 6 6 6
2 2 2 2 2 2 2 1 2 1 1 0 1 1 1 2 2 0 1 1 1 1 1 2 3 2 3 2 3 5 6 6 6 6 6 6 6 6 6 5 5 5 5
2 2 2 2 2 2 2 2 1 1 1 1 0 0 1 1 1 2 0 1 1 1 1 1 1 1 2 2 2 4 5 5 5 5 6 6 6 5 5 5 4 4 4
2 2 2 2 2 2 2 2 1 1 0 1 0 0 1 0 0 1 1 1 0 0 1 1 1 1 1 2 3 4 4 4 4 5 5 5 5 5 4 4 3 3 4
2 3 2 2 2 2 2 2 2 1 1 1 1 0 0 0 0 1 1 1 0 0 0 1 0 1 2 2 2 3 3 3 4 4 4 4 4 5 4 4 3 3 4
2 3 3 2 2 2 2 2 1 2 1 2 1 1 0 0 0 1 1 2 0 1 0 1 0 1 1 2 1 2 1 3 3 3 3 3 3 4 4 5 5 4 4
1 2 3 2 2 2 2 2 1 1 1 1 2 2 1 1 0 0 1 2 2 1 1 1 0 0 1 1 1 1 1 2 2 2 2 2 3 3 4 5 5 4 5
1 1 2 2 2 2 2 1 1 1 1 1 1 1 1 0 0 0 0 1 1 2 1 1 1 1 1 1 1 1 1 2 2 2 1 1 2 3 3 4 4 4 4
2 1 1 2 2 2 2 2 1 1 1 1 2 2 1 1 1 0 0 0 0 1 1 1 0 1 1 1 0 1 2 2 1 2 2 1 0 1 2 3 4 4 4
2 2 2 1 1 1 1 2 2 2 2 1 1 1 1 1 1 1 1 1 1 1 2 2 1 0 1 1 2 1 1 1 1 3 3 3 2 1 1 1 2 3 4
1 1 2 1 1 0 0 1 2 2 1 1 1 1 1 1 1 1 1 1 1 1 1 2 1 0 0 0 1 0 1 1 2 3 4 3 3 3 2 1 2 2 2
1 1 1 1 1 1 1 0 1 1 1 1 1 1 1 1 1 1 1 1 0 0 1 1 1 0 0 1 1 0 1 1 1 1 1 2 3 3 2 2 2 1 2
1 1 1 1 1 1 1 0 1 0 1 1 1 1 1 2 2 1 0 1 1 1 1 1 1 1 1 0 1 1 1 1 2 1 0 1 1 1 2 2 2 1 2
1 1 1 1 1 0 1 1 1 0 1 1 1 1 1 2 1 2 1 1 1 2 2 2 2 2 2 1 1 1 1 0 2 1 1 1 1 1 2 1 2 2 2
1 1 1 1 1 1 1 0 1 0 1 1 1 1 1 1 2 1 1 1 0 0 1 2 1 2 2 1 1 1 1 1 2 2 1 1 1 1 1 1 2 3 2
1 1 1 1 1 1 1 0 1 1 1 1 1 1 2 2 1 2 2 1 0 1 0 0 1 1 1 1 2 2 2 1 1 1 1 1 1 1 1 1 2 2 2
1 1 2 2 2 2 1 1 1 1 1 2 1 0 1 2 2 2 2 1 1 1 1 1 1 1 1 1 1 1 0 0 1 2 1 1 1 1 1 1 2 2 2
2 2 1 2 2 2 2 2 2 1 1 1 1 1 1 1 1 2 3 2 2 2 1 0 0 1 1 0 1 1 2 1 1 2 1 0 1 1 1 1 1 1 2
Wind_Direction
94 87 87 83 71 55 50 40 45 56 56 56 59 62 61 66 71 69 70 68 67 65 65 69 72 69 69 73 73 70 70 66 62 57 54 54 59 64 72 74 76 74 71
93 90 76 79 75 56 57 57 54 56 59 64 61 59 58 62 69 77 79 69 67 68 68 69 72 71 66 66 69 66 64 61 60 56 52 54 57 65 68 71 74 72 74
83 79 84 76 78 69 59 57 57 55 64 63 61 58 53 55 65 66 72 75 69 64 65 69 69 69 70 68 66 64 64 61 58 54 53 55 59 66 70 71 69 65 69
91 78 74 74 71 66 59 59 59 57 59 55 56 56 58 54 64 64 63 66 71 71 65 67 66 67 70 68 64 59 59 57 54 53 54 57 59 64 67 67 61 59 64
90 87 77 77 77 69 63 63 57 52 63 62 66 67 63 60 64 67 63 68 73 78 74 70 65 64 66 63 61 58 57 55 52 52 54 53 54 58 60 61 61 62 59
86 98 94 86 80 75 68 69 71 63 65 64 64 67 67 71 68 60 61 59 68 77 73 71 62 60 64 61 55 54 52 49 50 51 50 49 50 55 58 61 64 60 55
81 88 81 82 76 84 90 89 81 78 62 67 67 52 43 65 72 59 58 59 58 72 77 72 70 66 61 54 51 52 48 47 47 46 45 44 46 52 60 59 61 60 53
112 111 109 103 94 92 82 82 82 71 52 70 99 87 45 22 30 51 62 58 58 55 62 71 80 80 70 63 53 52 50 47 44 44 45 44 46 50 57 57 57 59 53
98 101 96 109 120 116 112 106 107 98 88 7 61 104 117 136 339 359 59 66 66 56 52 46 75 83 80 73 57 47 47 40 41 41 42 38 44 48 53 57 56 53 48
118 108 109 102 106 104 123 128 118 122 110 46 352 15 100 139 136 14 349 34 73 69 59 46 56 72 82 81 68 59 46 36 33 35 35 33 39 44 50 54 53 47 41
140 138 127 124 126 125 128 109 94 111 134 150 151 359 16 23 130 141 223 323 9 35 67 53 59 68 86 95 86 65 50 35 29 27 26 31 37 45 51 48 46 38 31
153 153 141 148 150 143 142 141 134 142 145 125 96 114 130 120 265 126 160 217 285 286 56 56 64 75 80 84 82 69 54 45 34 28 30 30 31 36 38 35 35 32 24
165 177 159 166 163 166 156 149 159 184 176 150 179 221 145 205 175 120 125 173 217 250 52 26 86 99 87 87 90 74 66 65 52 42 35 27 25 26 22 21 23 20 19
169 165 165 175 168 165 160 156 172 196 176 175 181 160 135 275 72 121 144 139 134 303 351 233 326 108 105 114 117 94 93 93 77 65 46 29 22 17 15 13 8 7 13
151 159 162 169 170 165 166 158 174 202 193 181 168 173 172 207 132 128 131 138 144 204 271 227 173 172 117 125 147 157 144 132 117 102 61 36 25 19 17 15 7 10 10
143 152 166 164 158 149 149 135 159 209 181 154 146 163 157 159 145 110 130 151 150 163 227 246 213 189 154 140 169 185 169 150 143 150 122 65 27 17 13 10 8 9 7
165 172 161 173 173 168 165 152 178 201 192 181 176 177 177 160 143 171 152 135 179 145 182 274 264 167 123 126 159 213 178 172 173 182 165 166 289 349 0 8 10 4 357
186 173 165 161 160 156 167 162 194 199 196 192 202 174 181 171 169 193 172 201 214 187 174 212 258 240 202 189 184 210 201 184 192 193 192 202 217 237 309 344 353 352 352
163 150 156 157 165 147 163 172 180 189 187 188 179 154 167 146 179 208 208 218 233 219 173 170 223 245 238 230 123 268 268 266 224 195 200 211 216 225 233 270 312 326 345
153 151 166 169 177 179 149 84 237 196 184 195 187 183 175 156 164 160 203 215 235 191 147 139 170 224 244 243 122 223 280 282 271 232 214 212 211 226 227 249 281 314 340
164 164 178 181 156 159 137 105 269 280 195 192 162 179 122 101 81 156 186 192 162 179 169 158 185 207 227 225 226 236 249 265 268 222 202 236 210 219 230 241 245 265 303
168 160 181 175 159 125 53 34 351 250 264 203 177 151 138 130 116 101 96 109 161 178 186 183 200 202 222 214 205 255 249 267 282 268 181 255 199 218 227 203 227 242 260
185 189 194 183 180 174 139 253 314 279 244 232 187 167 213 173 137 151 156 129 51 159 170 173 185 219 216 228 198 232 260 252 245 249 172 252 231 233 240 231 229 239 246
190 196 203 207 193 170 162 222 276 232 244 240 221 194 182 175 193 141 154 147 121 37 354 147 175 196 185 184 195 208 229 248 268 297 108 223 261 260 268 247 231 218 244
200 208 198 199 201 194 181 177 152 222 240 239 233 246 225 181 199 145 146 169 176 286 12 71 58 48 75 68 90 93 46 55 286 284 280 160 270 294 269 249 241 219 262
202 202 211 204 205 195 181 168 166 202 242 256 237 220 276 287 216 170 172 180 195 210 194 203 209 257 253 162 86 141 164 180 244 279 282 116 276 358 319 278 248 254 263